Flag for U.S.A. Weather past 2 weeks in Freehold, New Jersey, U.S.A.

Now
61 °F

Clear.


Feels Like: 61 °F
Forecast: 58 / 81 °F
Wind: 5 mph from Northwest

Location: Belmar-Farmdale

Current Time: Aug 28, 2015 at 1:46:11 AM

Latest Report: Aug 28, 2015 at 1:15 AM


Visibility: 10 mi

Pressure: 30.14 "Hg

Humidity: 72%

Dew point: 52 °F

Location of FreeholdLocation

Historic Weather in Freehold — Graph

°F

Freehold temperature yesterday

Maximum temperature yesterday: 81 °F (at 1:15 PM)
Minimum temperature yesterday: 59 °F (at 5:35 AM)
Average temperature yesterday: 70 °F

Past Weeks' High & Low Weather Summary

 TemperatureHumidityPressure
High93 °F (Aug 17, 1:55 PM)89% (Aug 20, 2:55 AM)30.20 "Hg (Aug 20, 2:55 AM)
Low59 °F (Aug 14, 5:55 AM)35% (Aug 13, 2:55 PM)29.82 "Hg (Aug 25, 4:55 PM)
Average75 °F62%30.03 "Hg
* Reported Aug 12 11:15 PM — Aug 27 11:55 PM, Freehold, Weather by CustomWeather, © 2015

Note: Actual official high and low records may vary slightly from our data, if they occured in-between our weather recording intervals... More about our weather records

Advertising

Freehold weather history for previous 24 hours

 ConditionsComfort  
Time TempWeatherWind HumidityBarometerVisibility
11:55 PM
Thu, Aug 27
63 °FClear.No wind68%30.14 "Hg10 mi
11:15 PM64 °FClear.No wind64%30.13 "Hg10 mi
10:55 PM64 °FClear.5 mph64%30.12 "Hg10 mi
10:35 PM66 °FClear.No wind60%30.12 "Hg10 mi
10:15 PM66 °FClear.No wind60%30.12 "Hg10 mi
9:55 PM66 °FClear.3 mph60%30.11 "Hg10 mi
9:35 PM68 °FClear.5 mph56%30.11 "Hg10 mi
9:15 PM68 °FClear.3 mph56%30.11 "Hg10 mi
8:55 PM68 °FClear.6 mph56%30.10 "Hg10 mi
8:35 PM70 °FSunny.7 mph53%30.09 "Hg10 mi
8:15 PM72 °FSunny.6 mph50%30.08 "Hg10 mi
7:55 PM72 °FSunny.6 mph53%30.07 "Hg10 mi
7:35 PM73 °FSunny.6 mph50%30.07 "Hg10 mi
7:15 PM75 °FSunny.6 mph47%30.06 "Hg10 mi
6:55 PM75 °FSunny.9 mph47%30.06 "Hg10 mi
6:35 PM77 °FSunny.9 mph44%30.06 "Hg10 mi
6:15 PM79 °FSunny.7 mph42%30.06 "Hg10 mi
5:55 PM79 °FScattered clouds.9 mph42%30.06 "Hg10 mi
5:35 PM81 °FOvercast.8 mph39%30.05 "Hg10 mi
5:15 PM77 °FOvercast.9 mph44%30.05 "Hg10 mi
4:55 PM79 °FScattered clouds.10 mph42%30.05 "Hg10 mi
4:35 PM79 °FPassing clouds.9 mph42%30.05 "Hg10 mi
4:15 PM81 °FPartly sunny.12 mph39%30.04 "Hg10 mi
3:55 PM81 °FPartly sunny.9 mph39%30.04 "Hg10 mi
3:35 PM81 °FOvercast.7 mph42%30.05 "Hg10 mi
3:15 PM81 °FPartly sunny.10 mph39%30.05 "Hg10 mi
2:55 PM79 °FMore clouds than sun.8 mph42%30.06 "Hg10 mi
2:35 PM81 °FMore clouds than sun.5 mph39%30.06 "Hg10 mi
1:55 PM79 °FBroken clouds.10 mph42%30.06 "Hg10 mi
1:35 PM79 °FSunny.7 mph45%30.06 "Hg10 mi
1:15 PM81 °FPassing clouds.8 mph42%30.06 "Hg10 mi
12:55 PM79 °FSunny.9 mph42%30.07 "Hg10 mi
12:35 PM79 °FPassing clouds.10 mph42%30.07 "Hg10 mi
12:15 PM79 °FSunny.8 mph45%30.08 "Hg10 mi
11:55 AM77 °FSunny.12 mph47%30.08 "Hg10 mi
11:35 AM75 °FPassing clouds.7 mph50%30.08 "Hg10 mi
11:15 AM75 °FSunny.10 mph50%30.08 "Hg10 mi
10:55 AM75 °FSunny.10 mph50%30.08 "Hg10 mi
10:35 AM73 °FSunny.8 mph53%30.08 "Hg10 mi
10:15 AM73 °FSunny.8 mph53%30.08 "Hg10 mi
9:55 AM72 °FSunny.8 mph53%30.08 "Hg10 mi
9:35 AM72 °FSunny.10 mph57%30.08 "Hg10 mi
9:15 AM70 °FSunny.10 mph57%30.08 "Hg10 mi
8:55 AM70 °FSunny.9 mph57%30.07 "Hg10 mi
8:35 AM68 °FSunny.6 mph60%30.07 "Hg10 mi
8:15 AM64 °FSunny.6 mph68%30.07 "Hg10 mi
7:55 AM63 °FSunny.6 mph73%30.07 "Hg10 mi
7:35 AM61 °FSunny.5 mph72%30.07 "Hg10 mi
7:15 AM61 °FClear.5 mph72%30.05 "Hg10 mi
6:55 AM59 °FClear.3 mph77%30.05 "Hg10 mi
6:35 AM59 °FClear.6 mph77%30.04 "Hg10 mi
6:15 AM59 °FClear.6 mph77%30.03 "Hg10 mi
5:55 AM59 °FClear.5 mph77%30.03 "Hg10 mi
5:35 AM59 °FClear.6 mph72%30.03 "Hg10 mi
5:15 AM61 °FClear.6 mph72%30.02 "Hg10 mi
4:55 AM61 °FClear.5 mph72%30.03 "Hg10 mi
4:35 AM61 °FClear.5 mph72%30.02 "Hg10 mi
4:15 AM61 °FClear.5 mph72%30.02 "Hg10 mi
3:55 AM61 °FClear.5 mph72%30.02 "Hg10 mi
3:35 AM61 °FClear.6 mph72%30.01 "Hg10 mi
3:15 AM61 °FClear.6 mph72%30.01 "Hg10 mi
2:55 AM63 °FClear.6 mph68%30.01 "Hg10 mi
2:35 AM63 °FClear.3 mph68%30.01 "Hg10 mi
2:15 AM63 °FClear.3 mph68%30.02 "Hg10 mi
1:55 AM63 °FClear.5 mph68%30.02 "Hg10 mi
1:35 AM63 °FClear.5 mph68%30.03 "Hg10 mi
1:15 AM63 °FClear.5 mph68%30.03 "Hg10 mi
Weather by CustomWeather, © 2015

See weather overviewHow to use our weather pages